Waarnemingen

Advertentie
Mijn weer
Kleine Brogel, België (6479): temperatuur & dauwpunt: 17.08.2017 21:00:00 - 23.08.2017 21:00:00 (CEST)Kleine Brogel, België (6479): windsnelheid & windstoten: 17.08.2017 21:00:00 - 23.08.2017 21:00:00 (CEST)Kleine Brogel, België (6479): windrichting: 17.08.2017 21:00:00 - 23.08.2017 21:00:00 (CEST)Kleine Brogel, België (6479): luchtdruk: 17.08.2017 21:00:00 - 23.08.2017 21:00:00 (CEST)Kleine Brogel, België (6479): zicht: 17.08.2017 21:00:00 - 23.08.2017 21:00:00 (CEST)
Datum & Tijd tt [°C] td [°C] ff [km/u] ff [kn] fx [km/u] fx [kn] dd ppp [hPa] vv [km]
23.08.2017 21:00:00 23,7 16,4 4 2 11 6 N 1013,0 20
23.08.2017 20:00:00 25,0 15,8 4 2 - - N 1012,7 20
23.08.2017 19:00:00 27,0 14,3 4 2 11 6 N 1012,7 20
23.08.2017 18:00:00 27,4 15,2 4 2 14 8 N 1013,2 20
23.08.2017 17:00:00 27,8 13,4 7 4 - - ZO 1013,3 25
23.08.2017 16:00:00 27,7 12,8 7 4 18 10 N 1013,8 25
23.08.2017 15:00:00 27,2 13,0 7 4 18 10 ZO 1014,2 25
23.08.2017 14:00:00 26,3 13,8 7 4 - - ZZO 1014,7 25
23.08.2017 13:00:00 25,5 13,8 7 4 22 12 OZO 1015,3 25
23.08.2017 12:00:00 24,2 14,0 4 2 14 8 N 1015,8 25
23.08.2017 11:00:00 22,0 13,9 7 4 - - O 1015,8 25
23.08.2017 10:00:00 19,6 13,3 7 4 11 6 N 1016,0 25
23.08.2017 09:00:00 17,1 13,0 4 2 11 6 N 1016,2 15
23.08.2017 08:00:00 14,6 12,5 4 2 - - N 1016,5 15
23.08.2017 07:00:00 12,3 11,3 4 2 7 4 N 1016,6 10
23.08.2017 06:00:00 12,6 11,2 4 2 7 4 N 1016,6 10
23.08.2017 05:00:00 12,8 11,3 4 2 - - N 1017,0 8
23.08.2017 04:00:00 13,6 11,6 4 2 7 4 N 1017,3 9
23.08.2017 03:00:00 13,6 11,5 7 4 11 6 N 1017,5 11
23.08.2017 02:00:00 14,6 11,5 7 4 - - O 1017,7 14
23.08.2017 01:00:00 15,3 11,7 7 4 11 6 ONO 1018,0 14
23.08.2017 00:00:00 16,0 11,9 7 4 14 8 ONO 1018,2 17
22.08.2017 23:00:00 17,2 12,1 11 6 - - O 1018,3 20
22.08.2017 22:00:00 18,2 12,3 7 4 14 8 ONO 1018,6 19
22.08.2017 21:00:00 18,7 12,7 4 2 7 4 N 1018,5 20
22.08.2017 20:00:00 20,5 12,6 4 2 - - N 1018,5 20
22.08.2017 19:00:00 22,5 11,8 7 4 14 8 ONO 1018,5 20
22.08.2017 18:00:00 23,3 11,4 11 6 14 8 ONO 1019,0 20
22.08.2017 17:00:00 24,5 10,5 7 4 - - ONO 1019,3 20
22.08.2017 16:00:00 23,0 10,6 7 4 14 8 O 1020,1 20
22.08.2017 15:00:00 24,2 10,6 4 2 18 10 N 1020,3 20
22.08.2017 14:00:00 22,9 10,9 7 4 - - O 1020,6 20
22.08.2017 13:00:00 22,0 11,2 11 6 18 10 NO 1021,0 20
22.08.2017 12:00:00 22,6 10,8 4 2 14 8 N 1021,2 20
22.08.2017 11:00:00 21,2 11,5 4 2 - - N 1021,6 20
22.08.2017 10:00:00 19,2 13,9 4 2 7 4 N 1021,7 20
22.08.2017 09:00:00 17,3 13,7 4 2 4 2 N 1021,6 20
22.08.2017 08:00:00 13,3 12,7 4 2 - - N 1021,6 18
22.08.2017 07:00:00 12,3 12,0 4 2 4 2 N 1021,7 18
22.08.2017 06:00:00 13,0 12,3 4 2 4 2 N 1021,7 18
22.08.2017 05:00:00 14,1 13,0 4 2 - - N 1021,8 19
22.08.2017 04:00:00 14,8 12,6 4 2 0 0 N 1021,8 20
22.08.2017 03:00:00 15,1 12,7 4 2 4 2 N 1022,0 20
22.08.2017 02:00:00 15,1 13,4 4 2 - - N 1022,2 20
22.08.2017 01:00:00 15,3 13,2 4 2 0 0 N 1022,3 20
22.08.2017 00:00:00 15,1 12,7 2 1 0 0 - 1022,7 10
21.08.2017 23:00:00 15,3 12,8 4 2 - - N 1022,7 20
21.08.2017 22:00:00 15,0 12,9 4 2 0 0 N 1022,7 20
21.08.2017 21:00:00 16,1 12,5 4 2 7 4 N 1022,7 20
21.08.2017 20:00:00 18,8 11,8 4 2 - - N 1022,2 20
21.08.2017 19:00:00 19,2 11,8 4 2 7 4 N 1022,5 20
21.08.2017 18:00:00 20,4 11,5 4 2 11 6 N 1022,7 20
21.08.2017 17:00:00 21,3 11,7 4 2 - - N 1022,6 20
21.08.2017 16:00:00 20,2 11,4 7 4 18 10 WZW 1023,0 25
21.08.2017 15:00:00 20,7 10,5 4 2 18 10 - 1023,2 25
21.08.2017 14:00:00 21,3 11,6 7 4 - - ZW 1023,7 25
21.08.2017 13:00:00 20,0 10,5 7 4 22 12 ZW 1024,0 25
21.08.2017 12:00:00 19,3 10,6 7 4 22 12 ZW 1024,5 25
21.08.2017 11:00:00 19,0 10,9 7 4 - - Z 1024,5 25
21.08.2017 10:00:00 17,7 10,6 4 2 7 4 N 1024,5 25
21.08.2017 09:00:00 15,0 11,3 4 2 0 0 N 1024,5 20
21.08.2017 08:00:00 11,4 10,6 4 2 - - N 1024,4 20
21.08.2017 07:00:00 10,8 9,7 4 2 4 2 N 1024,2 20
21.08.2017 06:00:00 11,5 10,0 4 2 4 2 N 1024,2 15
21.08.2017 05:00:00 12,0 10,1 4 2 - - - 1024,2 20
21.08.2017 04:00:00 11,8 10,7 4 2 4 2 - 1024,2 20
21.08.2017 03:00:00 12,0 10,7 4 2 4 2 - 1024,5 20
21.08.2017 02:00:00 12,1 10,8 4 2 - - N 1024,5 20
21.08.2017 01:00:00 12,3 10,7 4 2 0 0 N 1024,5 20
21.08.2017 00:00:00 13,0 10,9 4 2 0 0 - 1024,9 20
20.08.2017 23:00:00 13,1 10,7 4 2 - - N 1025,0 20
20.08.2017 22:00:00 13,8 10,6 4 2 4 2 - 1025,0 20
20.08.2017 21:00:00 14,8 10,4 4 2 11 6 - 1024,5 20
20.08.2017 20:00:00 17,1 9,7 4 2 - - N 1024,0 20
20.08.2017 19:00:00 18,2 8,9 7 4 22 12 WNW 1024,0 20
20.08.2017 18:00:00 19,0 9,0 11 6 29 16 WNW 1024,2 20
20.08.2017 17:00:00 19,0 10,6 14 8 - - W 1024,2 20
20.08.2017 16:00:00 17,9 10,1 22 12 29 16 W 1024,2 20
20.08.2017 15:00:00 18,3 11,5 14 8 29 16 WZW 1024,2 20
20.08.2017 14:00:00 17,5 10,8 18 10 - - WZW 1024,2 20
20.08.2017 13:00:00 17,7 10,7 18 10 29 16 WZW 1024,0 20
20.08.2017 12:00:00 17,8 11,6 18 10 25 14 WZW 1023,7 20
20.08.2017 11:00:00 17,5 13,1 18 10 - - WZW 1023,7 20
20.08.2017 10:00:00 13,5 11,6 14 8 22 12 ZW 1023,5 17
20.08.2017 09:00:00 13,1 11,7 15 8 22 12 ZW 1023,0 10
20.08.2017 08:00:00 11,6 11,2 11 6 - - ZW 1022,3 12
20.08.2017 07:00:00 11,0 10,6 9 5 14 8 ZW 1022,0 10
20.08.2017 06:00:00 10,3 10,1 7 4 11 6 ZW 1021,7 9
20.08.2017 05:00:00 10,5 10,0 4 2 - - - 1021,6 11
20.08.2017 04:00:00 10,8 10,1 7 4 11 6 ZZW 1021,1 15
20.08.2017 03:00:00 11,3 10,2 7 4 14 8 WZW 1020,8 19
20.08.2017 02:00:00 12,5 10,4 11 6 - - ZW 1020,7 20
20.08.2017 01:00:00 12,8 10,3 11 6 14 8 ZW 1020,6 20
20.08.2017 00:00:00 13,3 10,3 7 4 18 10 ZW 1020,5 20
19.08.2017 23:00:00 13,6 10,6 11 6 - - ZW 1020,3 20
19.08.2017 22:00:00 14,3 11,1 11 6 11 6 ZW 1020,2 20
19.08.2017 21:00:00 15,3 12,9 7 4 11 6 ZW 1019,6 20
19.08.2017 20:00:00 16,0 14,4 4 2 - - N 1019,2 20
19.08.2017 19:00:00 16,7 13,9 11 6 18 10 ZW 1018,8 20
19.08.2017 18:00:00 15,3 13,7 11 6 18 10 ZW 1018,8 20
19.08.2017 17:00:00 15,0 14,0 11 6 - - ZW 1018,7 20
19.08.2017 16:00:00 16,0 14,0 14 8 22 12 WZW 1018,3 20
19.08.2017 15:00:00 14,9 12,9 21 11 29 16 W 1018,1 6
19.08.2017 14:00:00 17,9 11,3 14 8 - - WZW 1017,6 20
19.08.2017 13:00:00 17,5 10,9 25 14 36 19 WZW 1017,2 20
19.08.2017 12:00:00 17,9 11,9 25 14 43 23 WZW 1016,8 19
19.08.2017 11:00:00 15,3 11,7 22 12 - - ZW 1016,8 20
19.08.2017 10:00:00 14,3 11,9 22 12 36 19 ZW 1016,5 20
19.08.2017 09:00:00 12,6 11,4 16 9 29 16 ZW 1016,2 10
19.08.2017 08:00:00 12,5 10,6 18 10 - - ZW 1015,7 20
19.08.2017 07:00:00 11,8 10,2 14 8 25 14 ZZW 1015,3 20
19.08.2017 06:00:00 11,3 10,2 14 8 22 12 ZZW 1015,1 20
19.08.2017 05:00:00 11,3 10,3 11 6 - - ZZW 1015,0 20
19.08.2017 04:00:00 11,3 10,5 11 6 18 10 ZZW 1015,2 20
19.08.2017 03:00:00 11,6 10,4 11 6 22 12 ZZW 1015,2 20
19.08.2017 02:00:00 12,0 10,4 14 8 - - ZW 1015,0 20
19.08.2017 01:00:00 12,1 10,7 11 6 14 8 ZW 1014,7 20
19.08.2017 00:00:00 12,3 11,4 4 2 11 6 - 1014,7 20
18.08.2017 23:00:00 12,8 11,9 7 4 - - ZW 1014,2 20
18.08.2017 22:00:00 13,3 12,2 11 6 25 14 ZW 1013,7 20
18.08.2017 21:00:00 15,1 14,6 11 6 50 27 ZW 1013,0 10
18.08.2017 20:00:00 18,3 15,3 9 5 - - ZZW 1011,7 10
18.08.2017 19:00:00 18,9 15,7 11 6 25 14 ZZW 1011,7 20
18.08.2017 18:00:00 19,4 15,4 11 6 22 12 ZW 1012,1 20
18.08.2017 17:00:00 17,8 15,2 14 8 - - ZW 1012,2 15
18.08.2017 16:00:00 16,5 15,5 15 8 29 16 ZW 1012,5 10
18.08.2017 15:00:00 16,7 15,6 14 8 40 21 W 1012,8 11
18.08.2017 14:00:00 20,2 16,6 18 10 - - ZW 1012,2 15
18.08.2017 13:00:00 20,5 17,7 16 9 25 14 ZZW 1012,2 10
18.08.2017 12:00:00 18,5 17,5 7 4 14 8 Z 1012,5 12
18.08.2017 11:00:00 17,5 16,9 4 2 - - - 1013,2 12
18.08.2017 10:00:00 16,6 16,3 7 4 14 8 ZW 1013,7 5
18.08.2017 09:00:00 17,0 16,0 7 4 11 6 ZZW 1013,7 15
18.08.2017 08:00:00 16,7 16,1 7 4 - - ZZW 1013,8 15
18.08.2017 07:00:00 16,1 15,5 4 2 14 8 - 1013,3 15
18.08.2017 06:00:00 16,7 16,1 5 3 14 8 Z 1013,7 10
18.08.2017 05:00:00 16,6 15,8 7 4 - - ZZW 1013,8 19
18.08.2017 04:00:00 17,2 15,7 7 4 11 6 WZW 1014,0 14
18.08.2017 03:00:00 16,5 15,7 4 2 11 6 - 1014,2 20
18.08.2017 02:00:00 17,2 16,3 7 4 - - ZW 1014,8 20
18.08.2017 01:00:00 17,3 16,2 11 6 22 12 ZW 1015,0 20
18.08.2017 00:00:00 17,8 17,0 13 7 22 12 ZZW 1015,1 10
17.08.2017 23:00:00 17,8 17,1 7 4 - - ZZW 1015,1 19
17.08.2017 22:00:00 18,7 17,2 11 6 22 12 ZZW 1015,2 20
17.08.2017 21:00:00 19,0 17,4 11 6 25 14 ZZW 1015,1 20

tt = temperatuur
td = dauwpunt
ff = windsnelheid
fx = windstoten
dd = windrichting
ppp = luchtdruk
vv = zicht

Weerstations in de omgeving